Location: Zagreb
(45.8000°N, 16.0000°E)
Time: 00:03:53
(UTC+01:00)

Transit 2A Rocket - Pass Details

Date: 06 October 2020
Orbit: 586 x 916 km, 66.7° (Epoch: 28 October)

Event Time Altitude Azimuth Distance (km) Brightness Sun altitude
Rises 18:10:35 0° 267° (W) 3,551 11.2 1.9°
Reaches altitude 10° 18:13:58 10° 285° (WNW) 2,607 9.1 1.3°
Maximum altitude 18:18:06 19° 328° (NNW) 2,040 7.6 0.6°
Drops below altitude 10° 18:22:10 10° 11° (NNE) 2,546 7.5 -0.2°
Sets 18:25:27 0° 30° (NNE) 3,439 8.0 -0.7°
